User: anonymous   Login
Location: Unspecified
(0.0000°N, 0.0000°E)
Time: 20:44:57
(UTC+00:00)
Language:

TBA - TO BE ASSIGNED - Orbit

View from above orbital plane
View from above orbital plane
View from above satellite
View from above satellite

Ground track
Ground track

The orbit is defined by the following mean orbital elements,

1 67433U          26145.44718542 +.00000000 +00000-0 +10288-3 0 00001
2 67433 142.0350 105.8736 0000910 274.2240  85.8375 13.83243737    08
Epoch (UTC): 25 May 2026 10:43:56
Eccentricity: 0.0000910
inclination: 142.0350°
perigee height: 952 km
apogee height: 953 km
right ascension of ascending node: 105.8736°
argument of perigee: 274.2240°
revolutions per day: 13.83243737
mean anomaly at epoch: 85.8375°

The dashed part of the orbit path shows where the satellite is in the earth's shadow,  

DLR